Location: Brede
(50.9167°N, 0.6000°E)
Time: 03:11:57
(UTC+00:00)

Cosmos 2297 Rocket - Pass Details

Date: 08 August 2020
Orbit: 838 x 845 km, 71.0° (Epoch: 27 September)

Event Time Altitude Azimuth Distance (km) Brightness Sun altitude
Exits shadow 03:54:36 - 266° (W) 3,122 4.6 -6.2°
Reaches altitude 10° 03:56:54 10° 280° (W) 2,460 4.2 -5.9°
Maximum altitude 04:00:56 20° 326° (NW) 1,877 4.0 -5.4°
Drops below altitude 10° 04:04:59 10° 12° (NNE) 2,470 5.4 -4.9°
Sets 04:08:10 0° 29° (NNE) 3,409 6.6 -4.4°
